Tracking 18823 objects as of 20-October-2017
HD Live streaming from Space Station
objects crossing your sky now

ARIANE 44L R/B

Track ARIANE 44L R/B now!


NORAD ID: 26696
Int'l Code: 2001-005C
Perigee: 308.0 km
Apogee: 32,112.1 km
Inclination: 7.0 °
Period: 562.8 minutes
Semi major axis: 22581 km
RCS: 23.3181 m2 (large)
Launch date: February 7, 2001
Source: France (FR)
Launch site: FRENCH GUIANA (FRGUI)

Note: This is a ROCKET BODY
aabbcc
Your satellite tracking list
Your tracking list is empty





NASA's NSSDC Master Catalog

Two Line Element Set (TLE):
1 26696U 01005C   17292.76475700  .00001210  00000-0  86907-3 0  9999
2 26696   6.9752 155.7009 7042196  24.4247 357.1020  2.55850263146453
Source of the keplerian elements: AFSPC